Content
SEND FEEDBACK

Daily
Averages
Monthly
Summary
Germany

LUBECK, GERMANY


Home > Europe > Germany
Elevation: 56 feet     Latitude: 54 00N     Longitude: 011 12E

WEATHER
 
SELECT A DAY
Number of Records: 65,520;   Date Range: 7/3/96 - 11/26/14
 
SHARE

PRINT THIS DATA

[ ← Previous Day ]
WEATHER ALMANAC - AUGUST 18, 2014
[ Next Day → ]
[ °C ]   °F
Weather ElementAverageHighLow
Temperature57.8 °F62.6 °F (12:20 pm)53 °F (5:00 am)
Dewpoint52.1 °F54 °F (1:00 am)50 °F (10:20 am)
Humidity79.6 %94 % (6:50 am)58 % (5:00 pm)
Barometer29.53 in29.64 in (11:00 pm)29.47 in (12:20 pm)
Wind Speed13 mph21.9 mph (4:50 pm)
Wind Gust29.9 mph (12:50 pm)
Weather ElementAverage
Visibility12.4 mi
Wind DirectionSW (228.2 °)

Weather ElementTotal
Precipitation---
Heating Degree Days7.2 (Base 65)
Growing Degree Days7.8 (Base 50)
Averaged from 56 records on August 18, 2014
WEATHER CONDITIONS BREAKOUT
WIND DIRECTION BREAKOUT
WEATHER BY HOUR - AUGUST 18, 2014
[ °C ]   °F
Local TimeTemperatureDewpointHumidityBarometerVisibilityWind DirectionWind SpeedGust SpeedPrecipitationEventsConditions
1:00 AM56.0 °F54.0 °F89 %29.58 in16.0 miSSW (200°)6.7 mphOvercast
2:00 AM55.0 °F53.0 °F90 %29.57 in17.0 miSSW (200°)6.7 mphClear
3:00 AM54.0 °F52.0 °F90 %29.57 in19.0 miSSW (200°)6.7 mph
4:00 AM54.0 °F51.0 °F88 %29.56 in19.0 miSSW (200°)6.7 mph
5:00 AM53.0 °F51.0 °F92 %29.55 in19.0 miSouth (190°)6.7 mph
6:00 AM54.0 °F52.0 °F89 %29.55 in12.0 miSSW (200°)6.7 mph
6:50 AM53.6 °F51.8 °F94 %29.53 in6.2 miSSW (210°)10.4 mphPartly Cloudy
7:00 AM54.0 °F51.0 °F86 %29.54 in12.0 miSouth (190°)6.7 mph
7:20 AM53.6 °F51.8 °F94 %29.53 in6.2 miSSW (210°)12.7 mphPartly Cloudy
7:50 AM55.4 °F51.8 °F88 %29.53 in6.2 miSW (220°)11.5 mphPartly Cloudy
8:00 AM55.0 °F51.0 °F80 %19.0 miSSW (210°)6.7 mph
8:20 AM55.4 °F51.8 °F88 %29.50 in6.2 miSW (220°)12.7 mphPartly Cloudy
8:50 AM57.2 °F51.8 °F82 %29.50 in6.2 miSW (220°)13.8 mphPartly Cloudy
9:00 AM57.0 °F51.0 °F74 %29.52 in19.0 miSSW (200°)8.9 mph
9:20 AM59.0 °F51.8 °F77 %29.50 in6.2 miSW (220°)13.8 mphPartly Cloudy
9:50 AM59.0 °F51.8 °F77 %29.50 in6.2 miSW (220°)17.3 mphMostly Cloudy
10:00 AM59.0 °F51.0 °F67 %29.52 in25.0 miSSW (210°)8.9 mph
10:18 AM59.0 °F51.8 °F77 %29.50 in6.2 miSW (220°)17.3 mphMostly Cloudy
10:20 AM59.0 °F50.0 °F72 %29.50 in6.2 miSW (220°)16.1 mphRainRain Showers
10:50 AM59.0 °F51.8 °F77 %29.50 in6.2 miSW (230°)17.3 mphRainLight Rain Showers
11:00 AM58.0 °F52.0 °F73 %29.51 in16.0 miSSW (210°)8.9 mphRainRain
11:20 AM60.8 °F51.8 °F72 %29.50 in6.2 miSW (230°)16.1 mphMostly Cloudy
11:50 AM59.0 °F51.8 °F77 %29.50 in6.2 miSW (220°)17.3 mphMostly Cloudy
12:00 PM60.0 °F50.0 °F62 %29.50 in25.0 miSSW (210°)8.9 mphRainRain
12:20 PM62.6 °F51.8 °F68 %29.47 in6.2 miSW (220°)15.0 mphMostly Cloudy
12:50 PM57.2 °F53.6 °F88 %29.47 in6.2 miSW (230°)18.4 mph29.9 mphMostly Cloudy
1:00 PM59.0 °F53.0 °F75 %29.50 in13.0 miSW (220°)6.7 mphRainRain
1:00 PM57.2 °F53.6 °F88 %29.50 in1.8 miSW (230°)15.0 mphRainRain Showers
1:09 PM55.4 °F51.8 °F88 %29.50 in6.2 miSW (230°)17.3 mphRainLight Rain Showers
1:20 PM55.4 °F53.6 °F94 %29.47 in6.2 miSW (230°)16.1 mphScattered Clouds
1:50 PM59.0 °F53.6 °F82 %29.47 in6.2 miSW (220°)16.1 mphScattered Clouds
2:00 PM60.0 °F53.0 °F72 %29.49 in22.0 miSSW (210°)11.2 mphRainRain
2:20 PM59.0 °F51.8 °F77 %29.47 in6.2 miSW (230°)20.7 mphScattered Clouds
2:50 PM60.8 °F53.6 °F77 %29.47 in6.2 miSW (230°)17.3 mphScattered Clouds
3:00 PM61.0 °F53.0 °F69 %29.49 in14.0 miSW (220°)8.9 mphRainRain
3:20 PM62.6 °F53.6 °F72 %29.47 in6.2 miWSW (240°)17.3 mphScattered Clouds
4:00 PM61.0 °F51.0 °F62 %29.51 in37.0 miWSW (240°)13.4 mphRainRain
4:20 PM62.6 °F50.0 °F63 %29.50 in6.2 miWest (260°)20.7 mphScattered Clouds
4:50 PM62.6 °F50.0 °F63 %29.50 in6.2 miWest (260°)21.9 mphScattered Clouds
5:00 PM62.0 °F51.0 °F58 %29.53 in44.0 miWest (260°)13.4 mphRainRain
5:20 PM60.8 °F50.0 °F68 %29.53 in6.2 miWSW (250°)20.7 mphScattered Clouds
5:50 PM60.8 °F51.8 °F72 %29.53 in6.2 miWest (260°)17.3 mphScattered Clouds
6:00 PM60.0 °F51.0 °F64 %29.55 in40.0 miWest (260°)15.7 mphRainLight Rain
6:20 PM59.0 °F51.8 °F77 %29.53 in6.2 miWest (260°)20.7 mphScattered Clouds
6:50 PM59.0 °F51.8 °F77 %29.56 in6.2 miWest (260°)15.0 mphScattered Clouds
7:00 PM58.0 °F51.0 °F72 %29.57 in22.0 miWSW (250°)11.2 mphRainLight Rain
7:20 PM57.2 °F51.8 °F82 %29.56 in6.2 miWSW (250°)16.1 mphScattered Clouds
7:50 PM57.2 °F53.6 °F88 %29.56 in6.2 miWSW (250°)11.5 mphScattered Clouds
8:00 PM58.0 °F52.0 °F76 %29.59 in19.0 miWSW (240°)8.9 mphRainLight Rain
8:20 PM57.2 °F53.6 °F88 %29.56 in6.2 miWSW (250°)11.5 mphRainLight Rain
8:50 PM57.2 °F53.6 °F88 %29.59 in6.2 miWSW (240°)13.8 mphRainLight Rain
9:00 PM56.0 °F53.0 °F86 %29.60 in9.0 miWSW (240°)6.7 mphRainLight Rain
9:20 PM55.4 °F53.6 °F94 %29.59 in6.2 miWSW (240°)15.0 mphRainRain
9:50 PM55.4 °F53.6 °F94 %29.59 in6.2 miWSW (250°)13.8 mphRainLight Rain
10:00 PM55.0 °F53.0 °F89 %29.62 in31.0 miWSW (240°)8.9 mphRainRain
11:00 PM55.0 °F53.0 °F92 %29.64 in25.0 miWSW (250°)8.9 mphRainRain
Hourly data recorded from EDHL, located miles away from Lubeck, Germany







STORIES FROM OUR PARTNERS